User: anonymous   Login
Location: Beugnon
(47.6222°N, 3.7850°E)
Time: 00:23:19
(UTC+00:00)
Language:

STARLINK-1202 - Orbit

View from above orbital plane
View from above orbital plane
View from above satellite
View from above satellite

Ground track
Ground track

The orbit data is extracted from the following two-line orbital elements,

1 45183U 20012F   20188.83334491  .00028684  00000-0  19801-2 0  9999
2 45183  53.0004 347.5428 0001206  95.0591 104.2634 15.05574362 21928
Epoch (UTC): 06 July 2020 20:00:01
Eccentricity: 0.0001206
inclination: 53.0004°
perigee height: 549 km
apogee height: 550 km
right ascension of ascending node: 347.5428°
argument of perigee: 95.0591°
revolutions per day: 15.05574362
mean anomaly at epoch: 104.2634°
orbit number at epoch: 2192

The dashed part of the orbit path shows where the satellite is in the earth's shadow,  

DLR